Location: Arran
(51.9410°N, 101.7372°W)
Time: 07:22:57
(UTC+00:00)

SWISSCUBE - Pass Details

Date: 22 May 2025
Orbit: 685 x 693 km, 98.4° (Epoch: 20 June)

Event Time Altitude Azimuth Distance (km) Brightness Sun altitude
Rises 05:33:02 0° 17° (NNE) 3,078 ? -16.0°
Reaches altitude 10° 05:35:19 10° 22° (NNE) 2,158 ? -16.1°
Maximum altitude 05:39:59 59° 102° (ESE) 806 ? -16.3°
Enters shadow 05:42:15 29° 170° (S) 1,263 ? -16.4°
